TimeCDT,TemperatureF,Dew PointF,Humidity,Sea Level PressureIn,VisibilityMPH,Wind Direction,Wind SpeedMPH,Gust SpeedMPH,PrecipitationIn,Events,Conditions,WindDirDegrees,DateUTC
12:15 AM,77.9,71.8,81,30.04,10.0,South,9.2,-,N/A,,Clear,190,2013-08-26 05:15:00
12:35 AM,77.9,71.6,81,30.04,10.0,South,12.7,16.1,N/A,,Clear,190,2013-08-26 05:35:00
12:55 AM,78.1,71.2,79,30.05,10.0,South,12.7,18.4,N/A,,Clear,190,2013-08-26 05:55:00
1:15 AM,77.4,71.1,81,30.04,10.0,South,11.5,-,N/A,,Clear,190,2013-08-26 06:15:00
1:35 AM,77.0,70.9,81,30.04,10.0,South,11.5,-,N/A,,Clear,190,2013-08-26 06:35:00
1:55 AM,77.4,70.5,79,30.05,10.0,SSW,12.7,17.3,N/A,,Clear,200,2013-08-26 06:55:00
2:15 AM,77.4,70.0,78,30.04,10.0,SSW,10.4,-,N/A,,Clear,200,2013-08-26 07:15:00
2:35 AM,77.0,69.8,78,30.04,10.0,SSW,11.5,-,N/A,,Clear,200,2013-08-26 07:35:00
2:55 AM,77.4,69.1,76,30.04,10.0,SSW,12.7,-,N/A,,Clear,210,2013-08-26 07:55:00
3:15 AM,77.4,68.9,75,30.04,10.0,SSW,11.5,-,N/A,,Clear,210,2013-08-26 08:15:00
3:35 AM,76.3,68.9,78,30.04,10.0,SSW,10.4,-,N/A,,Clear,210,2013-08-26 08:35:00
3:55 AM,76.1,68.9,78,30.04,10.0,SSW,10.4,-,N/A,,Clear,210,2013-08-26 08:55:00
4:15 AM,75.2,68.9,81,30.04,10.0,SSW,9.2,-,N/A,,Clear,200,2013-08-26 09:15:00
4:35 AM,75.2,68.7,80,30.04,10.0,SSW,8.1,-,N/A,,Clear,210,2013-08-26 09:35:00
4:55 AM,75.2,68.4,79,30.04,10.0,SSW,9.2,-,N/A,,Clear,210,2013-08-26 09:55:00
5:15 AM,74.7,68.4,81,30.04,10.0,SSW,9.2,-,N/A,,Clear,200,2013-08-26 10:15:00
5:35 AM,73.8,68.4,83,30.04,10.0,SSW,6.9,-,N/A,,Clear,200,2013-08-26 10:35:00
5:55 AM,73.4,68.4,84,30.04,10.0,SSW,6.9,-,N/A,,Clear,200,2013-08-26 10:55:00
6:15 AM,73.4,68.2,84,30.04,10.0,SSW,6.9,-,N/A,,Clear,210,2013-08-26 11:15:00
6:35 AM,73.4,68.0,83,30.04,10.0,SSW,9.2,-,N/A,,Clear,210,2013-08-26 11:35:00
6:55 AM,73.4,68.0,83,30.04,10.0,SSW,9.2,-,N/A,,Clear,200,2013-08-26 11:55:00
7:15 AM,73.6,68.0,83,30.04,10.0,SSW,8.1,-,N/A,,Clear,200,2013-08-26 12:15:00
7:35 AM,74.3,68.4,82,30.04,10.0,SSW,9.2,-,N/A,,Clear,200,2013-08-26 12:35:00
7:55 AM,75.0,68.7,81,30.04,10.0,SSW,8.1,-,N/A,,Clear,200,2013-08-26 12:55:00
8:15 AM,75.9,68.9,79,30.03,10.0,SSW,10.4,-,N/A,,Clear,210,2013-08-26 13:15:00
8:35 AM,77.0,69.6,78,30.03,10.0,SSW,6.9,-,N/A,,Clear,210,2013-08-26 13:35:00
8:55 AM,77.7,69.3,75,30.03,10.0,SSW,10.4,-,N/A,,Clear,210,2013-08-26 13:55:00
9:15 AM,78.6,70.0,75,30.03,10.0,SSW,9.2,-,N/A,,Clear,210,2013-08-26 14:15:00
9:35 AM,79.7,70.0,72,30.03,10.0,SSW,10.4,-,N/A,,Clear,200,2013-08-26 14:35:00
9:55 AM,80.4,70.9,73,30.03,10.0,SSW,8.1,-,N/A,,Clear,200,2013-08-26 14:55:00
10:15 AM,81.3,71.2,71,30.02,10.0,SSW,11.5,18.4,N/A,,Clear,210,2013-08-26 15:15:00
10:35 AM,81.9,71.1,70,30.02,10.0,SSW,10.4,17.3,N/A,,Clear,210,2013-08-26 15:35:00
10:55 AM,82.4,70.9,68,30.02,10.0,SSW,12.7,-,N/A,,Clear,200,2013-08-26 15:55:00
11:15 AM,82.9,71.4,68,30.02,10.0,SSW,10.4,19.6,N/A,,Clear,200,2013-08-26 16:15:00
11:35 AM,83.8,71.8,67,30.02,10.0,SSW,13.8,-,N/A,,Clear,210,2013-08-26 16:35:00
11:55 AM,84.6,72.7,67,30.01,10.0,SSW,13.8,-,N/A,,Clear,210,2013-08-26 16:55:00
12:15 PM,85.1,73.0,67,30.01,10.0,SSW,10.4,16.1,N/A,,Clear,200,2013-08-26 17:15:00
12:35 PM,85.6,72.7,65,30.00,10.0,South,12.7,20.7,N/A,,Clear,190,2013-08-26 17:35:00
12:55 PM,86.4,74.1,67,30.00,10.0,SSW,15.0,20.7,N/A,,Clear,200,2013-08-26 17:55:00
1:15 PM,86.4,73.8,66,29.99,10.0,SSW,16.1,-,N/A,,Clear,200,2013-08-26 18:15:00
1:35 PM,86.9,74.1,66,29.99,10.0,South,13.8,19.6,N/A,,Clear,190,2013-08-26 18:35:00
1:55 PM,87.1,74.1,65,29.98,10.0,SSW,13.8,20.7,N/A,,Clear,200,2013-08-26 18:55:00
2:15 PM,87.8,75.4,66,29.97,10.0,South,13.8,-,N/A,,Clear,180,2013-08-26 19:15:00
2:35 PM,88.2,74.1,63,29.97,10.0,South,15.0,19.6,N/A,,Clear,190,2013-08-26 19:35:00
2:55 PM,88.2,73.9,63,29.96,10.0,South,17.3,21.9,N/A,,Clear,180,2013-08-26 19:55:00
3:15 PM,88.2,74.5,64,29.96,10.0,South,17.3,23.0,N/A,,Clear,190,2013-08-26 20:15:00
3:35 PM,88.5,75.4,65,29.95,10.0,South,16.1,21.9,N/A,,Clear,180,2013-08-26 20:35:00
3:55 PM,88.7,75.7,65,29.95,10.0,South,16.1,21.9,N/A,,Clear,180,2013-08-26 20:55:00
4:15 PM,88.7,76.3,67,29.95,10.0,South,16.1,20.7,N/A,,Clear,180,2013-08-26 21:15:00
4:35 PM,88.7,76.1,66,29.95,10.0,South,16.1,21.9,N/A,,Clear,190,2013-08-26 21:35:00
4:55 PM,88.7,75.7,65,29.95,10.0,South,16.1,-,N/A,,Clear,190,2013-08-26 21:55:00
5:15 PM,88.9,76.8,67,29.95,10.0,South,11.5,-,N/A,,Clear,190,2013-08-26 22:15:00
5:35 PM,88.7,76.8,68,29.94,10.0,South,11.5,17.3,N/A,,Clear,180,2013-08-26 22:35:00
5:55 PM,88.2,76.8,69,29.94,10.0,South,11.5,-,N/A,,Clear,190,2013-08-26 22:55:00
6:15 PM,87.8,75.7,67,29.94,10.0,South,11.5,-,N/A,,Clear,190,2013-08-26 23:15:00
6:35 PM,86.9,74.8,67,29.93,10.0,South,11.5,-,N/A,,Clear,190,2013-08-26 23:35:00
6:55 PM,86.0,75.2,70,29.93,10.0,South,10.4,-,N/A,,Clear,180,2013-08-26 23:55:00
7:15 PM,85.3,75.7,73,29.93,10.0,South,10.4,-,N/A,,Clear,180,2013-08-27 00:15:00
7:35 PM,84.2,74.3,72,29.92,10.0,South,10.4,-,N/A,,Clear,180,2013-08-27 00:35:00
7:55 PM,82.6,73.4,74,29.92,10.0,South,10.4,-,N/A,,Clear,180,2013-08-27 00:55:00
8:15 PM,82.0,72.3,72,29.92,10.0,South,10.4,-,N/A,,Clear,170,2013-08-27 01:15:00
8:35 PM,81.0,71.8,74,29.91,10.0,South,10.4,-,N/A,,Clear,180,2013-08-27 01:35:00
8:55 PM,80.2,72.0,76,29.91,10.0,South,10.4,-,N/A,,Clear,180,2013-08-27 01:55:00
9:15 PM,79.7,72.1,78,29.91,10.0,South,10.4,-,N/A,,Clear,180,2013-08-27 02:15:00
9:35 PM,79.7,71.6,76,29.91,10.0,South,11.5,-,N/A,,Clear,180,2013-08-27 02:35:00
9:55 PM,79.7,71.4,76,29.91,10.0,South,12.7,-,N/A,,Clear,180,2013-08-27 02:55:00
10:15 PM,79.7,70.7,74,29.91,10.0,South,11.5,-,N/A,,Clear,180,2013-08-27 03:15:00
10:35 PM,79.3,70.2,73,29.91,10.0,South,11.5,17.3,N/A,,Clear,190,2013-08-27 03:35:00
10:55 PM,79.2,69.8,73,29.91,10.0,South,11.5,-,N/A,,Clear,190,2013-08-27 03:55:00
11:15 PM,78.8,69.1,72,29.91,10.0,South,11.5,-,N/A,,Clear,190,2013-08-27 04:15:00
11:35 PM,78.4,68.9,72,29.91,10.0,South,10.4,-,N/A,,Clear,190,2013-08-27 04:35:00
11:55 PM,77.7,68.9,74,29.92,10.0,SSW,8.1,-,N/A,,Clear,200,2013-08-27 04:55:00